CZ-4 DEB, 26199

Orbit data source: Space-Track

CZ-4 DEB, 26199 is space debris in SSO originally from a launch on Thu, 14 Oct 1999 UTC launched from the Taiyaun Space Center, China (TSC). Debris objects in space refer to the collection of defunct objects orbiting the Earth. Examples of debris include non-operational satellites, rocket bodies, and fragments generated from explosions, collisions, or faulty payload assembly.

Loading next visibility...
Identifier
26199, 1999-057CM
Orbit
SSO
Country
Flag of CNCN / PRC
Related business
Manufacturer
Unknown
Mission
Spacecraft
Bus & Motor
Unknown
Mass
Unknown
Launch date (UTC)
1999-10-14 (26 years ago)
Launch vehicle
Unknown
Launch site
Taiyaun Space Center, China (TSC)
Object type
Payload
Rocket body
Debris
Shape & HBR
Unknown shape, 0.1 m
Radar Cross Section
Small (<0.1 m²)

Expand to show TLE details & history
Last TLE update: 7 hours ago

TLE from 7 hours ago
0 CZ-4 DEB
1 26199U 99057CM  25293.15020735  .00009775  00000-0  16845-2 0  9995
2 26199  98.3713 357.0552 0063353 283.7876 129.9463 14.67412248350830
Epoch: 2025-10-20T03:36Z
TLE epoch observation values (Epoch: 2025-10-20T03:36:17.915Z)
Latitude
53.54927°
Longitude
-97.30536°
Altitude
706.953 km
Speed
7.492 km/s
True Right ascension
23h 02m 30s
True Declination
53° 23' 01"
Sunlit
Object was in full shadow at epoch
Visualization orbit readout
Latitude
Unknown
Longitude
Unknown
Altitude
Unknown
Speed
Unknown
Apparent Right ascension
Unknown
Apparent Declination
Unknown
Sunlit
N/A
Visualization observer readout
Local Sidereal Time
05:16:56
Azimuth
Unknown
Elevation
Unknown
Doppler factor
Unknown
Orbital elements
Apogee altitude
711.05 km
Perigee altitude
621.791 km
Semi-major axis
7,044.557 km
Eccentricity
0.00634
Inclination
98.3713°
RAAN
357.0552°
Arg. of periapsis
283.7876°
True anomaly
130.50004°
Mean anomaly
129.9463°
Eccentric anomaly
130.22345°
Mean motion
3.67082 °/min
Orbital period
98.07 mins
BSTAR
0.0016845
Loading maneuver chart data...
Computing Atmospheric mass density...

Documentation

Showing up to 5 results
|